Time,TemperatureF,DewpointF,PressureIn,WindDirection,WindDirectionDegrees,WindSpeedMPH,WindSpeedGustMPH,Humidity,HourlyPrecipIn,Conditions,Clouds,dailyrainin,SoftwareType,DateUTC
2013-06-16 00:07:00,70.1,66.0,29.98,SSE,161,0.0,1.0,87,0.00,,,0.00,weatherlink.com 1.10,2013-06-16 05:07:00,
2013-06-16 00:22:00,70.7,66.0,29.98,SSE,161,0.0,1.0,86,0.00,,,0.00,weatherlink.com 1.10,2013-06-16 05:22:00,
2013-06-16 00:39:00,70.8,67.0,29.98,SSE,161,0.0,0.0,86,0.00,,,0.00,weatherlink.com 1.10,2013-06-16 05:39:00,
2013-06-16 00:54:00,70.8,67.0,29.99,SSE,161,0.0,0.0,87,0.00,,,0.00,weatherlink.com 1.10,2013-06-16 05:54:00,
2013-06-16 01:09:00,70.5,66.0,29.99,SSE,161,0.0,0.0,86,0.00,,,0.00,weatherlink.com 1.10,2013-06-16 06:09:00,
2013-06-16 01:24:00,70.3,67.0,29.99,SSE,161,0.0,0.0,88,0.00,,,0.00,weatherlink.com 1.10,2013-06-16 06:24:00,
2013-06-16 01:39:00,70.1,67.0,29.99,SSE,161,0.0,0.0,89,0.00,,,0.00,weatherlink.com 1.10,2013-06-16 06:39:00,
2013-06-16 01:54:00,69.9,67.0,29.99,SSE,161,0.0,0.0,89,0.00,,,0.00,weatherlink.com 1.10,2013-06-16 06:54:00,
2013-06-16 02:09:00,69.9,67.0,29.99,SSE,161,0.0,0.0,90,0.00,,,0.00,weatherlink.com 1.10,2013-06-16 07:09:00,
2013-06-16 02:24:00,69.8,67.0,29.98,SSE,161,0.0,0.0,91,0.00,,,0.00,weatherlink.com 1.10,2013-06-16 07:24:00,
2013-06-16 02:41:00,69.5,67.0,29.98,SSE,161,0.0,0.0,90,0.00,,,0.00,weatherlink.com 1.10,2013-06-16 07:41:00,
2013-06-16 02:56:00,69.3,67.0,29.97,SSE,161,0.0,0.0,91,0.00,,,0.00,weatherlink.com 1.10,2013-06-16 07:56:00,
2013-06-16 03:11:00,69.0,66.0,29.97,SSE,161,0.0,0.0,91,0.00,,,0.00,weatherlink.com 1.10,2013-06-16 08:11:00,
2013-06-16 03:26:00,68.8,66.0,29.96,SSE,161,0.0,0.0,92,0.00,,,0.00,weatherlink.com 1.10,2013-06-16 08:26:00,
2013-06-16 03:41:00,68.5,66.0,29.97,SSE,161,0.0,0.0,92,0.00,,,0.00,weatherlink.com 1.10,2013-06-16 08:41:00,
2013-06-16 03:56:00,68.4,66.0,29.97,SSE,161,0.0,0.0,93,0.00,,,0.00,weatherlink.com 1.10,2013-06-16 08:56:00,
2013-06-16 04:12:00,68.2,66.0,29.97,SSE,161,0.0,0.0,93,0.00,,,0.00,weatherlink.com 1.10,2013-06-16 09:12:00,
2013-06-16 04:27:00,68.1,66.0,29.96,SSE,161,0.0,0.0,94,0.00,,,0.00,weatherlink.com 1.10,2013-06-16 09:27:00,
2013-06-16 04:42:00,67.8,66.0,29.96,SSE,161,0.0,0.0,94,0.00,,,0.00,weatherlink.com 1.10,2013-06-16 09:42:00,
2013-06-16 04:57:00,67.4,66.0,29.97,SSE,161,0.0,0.0,94,0.00,,,0.00,weatherlink.com 1.10,2013-06-16 09:57:00,
2013-06-16 05:12:00,67.2,66.0,29.97,SSE,161,0.0,0.0,94,0.00,,,0.00,weatherlink.com 1.10,2013-06-16 10:12:00,
2013-06-16 05:27:00,67.1,65.0,29.98,SSE,161,0.0,1.0,94,0.00,,,0.00,weatherlink.com 1.10,2013-06-16 10:27:00,
2013-06-16 05:42:00,67.1,66.0,29.98,SSE,161,0.0,0.0,95,0.00,,,0.00,weatherlink.com 1.10,2013-06-16 10:42:00,
2013-06-16 05:59:00,67.1,66.0,29.98,SSE,161,0.0,0.0,95,0.00,,,0.00,weatherlink.com 1.10,2013-06-16 10:59:00,
2013-06-16 06:14:00,67.2,66.0,29.98,SSE,161,0.0,0.0,95,0.00,,,0.00,weatherlink.com 1.10,2013-06-16 11:14:00,
2013-06-16 06:29:00,67.5,66.0,29.99,SSE,161,0.0,0.0,95,0.00,,,0.00,weatherlink.com 1.10,2013-06-16 11:29:00,
2013-06-16 06:44:00,67.8,67.0,30.00,SSE,161,0.0,0.0,96,0.00,,,0.00,weatherlink.com 1.10,2013-06-16 11:44:00,
2013-06-16 06:59:00,68.1,67.0,30.00,SSE,161,0.0,0.0,95,0.00,,,0.00,weatherlink.com 1.10,2013-06-16 11:59:00,
2013-06-16 07:14:00,68.5,67.0,30.01,SSE,161,0.0,0.0,96,0.00,,,0.00,weatherlink.com 1.10,2013-06-16 12:14:00,
2013-06-16 07:29:00,69.2,68.0,30.01,SSE,161,0.0,0.0,95,0.00,,,0.00,weatherlink.com 1.10,2013-06-16 12:29:00,
2013-06-16 07:46:00,69.9,69.0,30.01,SSE,161,0.0,0.0,95,0.00,,,0.00,weatherlink.com 1.10,2013-06-16 12:46:00,
2013-06-16 08:01:00,70.7,69.0,30.01,SSE,161,0.0,0.0,94,0.00,,,0.00,weatherlink.com 1.10,2013-06-16 13:01:00,
2013-06-16 08:16:00,71.7,69.0,30.02,SSE,161,0.0,2.0,92,0.00,,,0.00,weatherlink.com 1.10,2013-06-16 13:16:00,
2013-06-16 08:31:00,72.9,70.0,30.02,SSE,161,0.0,0.0,90,0.00,,,0.00,weatherlink.com 1.10,2013-06-16 13:31:00,
2013-06-16 08:46:00,73.7,69.0,30.01,SSE,159,0.0,2.0,85,0.00,,,0.00,weatherlink.com 1.10,2013-06-16 13:46:00,
2013-06-16 09:01:00,74.7,69.0,30.00,SSE,166,0.0,3.0,82,0.00,,,0.00,weatherlink.com 1.10,2013-06-16 14:01:00,
2013-06-16 09:16:00,75.8,69.0,29.99,SSE,159,1.0,4.0,80,0.00,,,0.00,weatherlink.com 1.10,2013-06-16 14:16:00,
2013-06-16 09:31:00,76.8,69.0,29.99,SSE,166,2.0,6.0,77,0.00,,,0.00,weatherlink.com 1.10,2013-06-16 14:31:00,
2013-06-16 09:47:00,77.9,69.0,29.99,SSE,154,1.0,6.0,74,0.00,,,0.00,weatherlink.com 1.10,2013-06-16 14:47:00,
2013-06-16 10:02:00,78.4,70.0,29.99,South,171,1.0,3.0,74,0.00,,,0.00,weatherlink.com 1.10,2013-06-16 15:02:00,
2013-06-16 10:17:00,78.4,69.0,29.98,SSE,162,1.0,8.0,73,0.00,,,0.00,weatherlink.com 1.10,2013-06-16 15:17:00,
2013-06-16 10:32:00,79.2,69.0,29.98,SSE,166,1.0,9.0,70,0.00,,,0.00,weatherlink.com 1.10,2013-06-16 15:32:00,
2013-06-16 10:47:00,80.6,69.0,29.98,South,188,1.0,5.0,68,0.00,,,0.00,weatherlink.com 1.10,2013-06-16 15:47:00,
2013-06-16 11:04:00,82.3,70.0,29.98,SSE,166,4.0,8.0,66,0.00,,,0.00,weatherlink.com 1.10,2013-06-16 16:04:00,
2013-06-16 11:19:00,82.5,70.0,29.98,South,171,3.0,9.0,67,0.00,,,0.00,weatherlink.com 1.10,2013-06-16 16:19:00,
2013-06-16 11:36:00,83.1,70.0,29.97,South,184,2.0,8.0,64,0.00,,,0.00,weatherlink.com 1.10,2013-06-16 16:36:00,
2013-06-16 11:49:00,83.3,69.0,29.97,SW,230,3.0,6.0,62,0.00,,,0.00,weatherlink.com 1.10,2013-06-16 16:49:00,
2013-06-16 12:04:00,83.3,69.0,29.97,SSW,195,1.0,4.0,63,0.00,,,0.00,weatherlink.com 1.10,2013-06-16 17:04:00,
2013-06-16 12:19:00,83.2,69.0,29.97,SW,227,2.0,10.0,62,0.00,,,0.00,weatherlink.com 1.10,2013-06-16 17:19:00,
2013-06-16 12:36:00,83.5,69.0,29.97,West,259,5.0,11.0,61,0.00,,,0.00,weatherlink.com 1.10,2013-06-16 17:36:00,
2013-06-16 12:49:00,84.6,68.0,29.97,SW,220,4.0,12.0,58,0.00,,,0.00,weatherlink.com 1.10,2013-06-16 17:49:00,
2013-06-16 13:04:00,86.1,69.0,29.97,SW,234,6.0,12.0,56,0.00,,,0.00,weatherlink.com 1.10,2013-06-16 18:04:00,
2013-06-16 13:21:00,86.3,69.0,29.97,WSW,240,6.0,10.0,56,0.00,,,0.00,weatherlink.com 1.10,2013-06-16 18:21:00,
2013-06-16 13:36:00,86.5,69.0,29.97,SW,219,4.0,12.0,57,0.00,,,0.00,weatherlink.com 1.10,2013-06-16 18:36:00,
2013-06-16 13:51:00,86.3,69.0,29.97,WSW,242,1.0,10.0,57,0.00,,,0.00,weatherlink.com 1.10,2013-06-16 18:51:00,
2013-06-16 14:06:00,86.9,69.0,29.96,SSW,192,2.0,5.0,56,0.00,,,0.00,weatherlink.com 1.10,2013-06-16 19:06:00,
2013-06-16 14:21:00,87.1,70.0,29.95,WSW,258,5.0,6.0,58,0.00,,,0.00,weatherlink.com 1.10,2013-06-16 19:21:00,
2013-06-16 14:37:00,87.7,70.0,29.95,SW,214,4.0,7.0,56,0.00,,,0.00,weatherlink.com 1.10,2013-06-16 19:37:00,
2013-06-16 14:52:00,88.0,70.0,29.95,SSW,197,1.0,5.0,56,0.00,,,0.00,weatherlink.com 1.10,2013-06-16 19:52:00,
2013-06-16 15:07:00,88.2,70.0,29.95,SSW,209,2.0,5.0,55,0.00,,,0.00,weatherlink.com 1.10,2013-06-16 20:07:00,
2013-06-16 15:22:00,87.8,75.0,29.94,NW,321,0.0,5.0,65,0.00,,,0.00,weatherlink.com 1.10,2013-06-16 20:22:00,
2013-06-16 15:37:00,88.2,70.0,29.94,SSW,205,2.0,5.0,55,0.00,,,0.00,weatherlink.com 1.10,2013-06-16 20:37:00,
2013-06-16 15:52:00,88.6,70.0,29.93,SSW,201,1.0,9.0,54,0.00,,,0.00,weatherlink.com 1.10,2013-06-16 20:52:00,
2013-06-16 16:07:00,87.7,71.0,29.93,SW,217,0.0,4.0,58,0.00,,,0.00,weatherlink.com 1.10,2013-06-16 21:07:00,
2013-06-16 16:22:00,86.9,70.0,29.93,SSW,213,1.0,5.0,58,0.00,,,0.00,weatherlink.com 1.10,2013-06-16 21:22:00,
2013-06-16 16:39:00,86.5,70.0,29.92,SW,224,1.0,4.0,59,0.00,,,0.00,weatherlink.com 1.10,2013-06-16 21:39:00,
2013-06-16 16:54:00,86.1,74.0,29.92,SSW,212,0.0,1.0,67,0.00,,,0.00,weatherlink.com 1.10,2013-06-16 21:54:00,
2013-06-16 17:09:00,84.6,75.0,29.92,SSW,212,0.0,0.0,73,0.00,,,0.00,weatherlink.com 1.10,2013-06-16 22:09:00,
2013-06-16 17:24:00,84.9,71.0,29.92,SW,220,0.0,2.0,64,0.00,,,0.00,weatherlink.com 1.10,2013-06-16 22:24:00,
2013-06-16 17:39:00,85.0,75.0,29.91,SW,218,0.0,2.0,72,0.00,,,0.00,weatherlink.com 1.10,2013-06-16 22:39:00,
2013-06-16 17:54:00,84.1,72.0,29.91,SW,218,0.0,1.0,68,0.00,,,0.00,weatherlink.com 1.10,2013-06-16 22:54:00,
2013-06-16 18:09:00,85.0,73.0,29.91,SW,216,0.0,1.0,68,0.00,,,0.00,weatherlink.com 1.10,2013-06-16 23:09:00,
2013-06-16 18:24:00,84.6,75.0,29.91,SW,216,0.0,0.0,73,0.00,,,0.00,weatherlink.com 1.10,2013-06-16 23:24:00,
2013-06-16 18:41:00,84.5,75.0,29.91,SW,216,0.0,0.0,73,0.00,,,0.00,weatherlink.com 1.10,2013-06-16 23:41:00,
2013-06-16 18:56:00,84.0,75.0,29.92,SW,216,0.0,1.0,74,0.00,,,0.00,weatherlink.com 1.10,2013-06-16 23:56:00,
2013-06-16 19:11:00,83.4,74.0,29.92,SW,216,0.0,1.0,72,0.00,,,0.00,weatherlink.com 1.10,2013-06-17 00:11:00,
2013-06-16 19:26:00,82.6,73.0,29.92,SW,216,0.0,2.0,73,0.00,,,0.00,weatherlink.com 1.10,2013-06-17 00:26:00,
2013-06-16 19:41:00,81.3,73.0,29.92,SW,216,0.0,0.0,76,0.00,,,0.00,weatherlink.com 1.10,2013-06-17 00:41:00,
2013-06-16 19:56:00,80.2,72.0,29.92,SW,216,0.0,0.0,77,0.00,,,0.00,weatherlink.com 1.10,2013-06-17 00:56:00,
2013-06-16 20:11:00,79.1,72.0,29.92,SW,216,0.0,0.0,79,0.00,,,0.00,weatherlink.com 1.10,2013-06-17 01:11:00,
2013-06-16 20:27:00,77.6,72.0,29.92,SW,216,0.0,0.0,82,0.00,,,0.00,weatherlink.com 1.10,2013-06-17 01:27:00,
2013-06-16 20:42:00,76.7,72.0,29.93,SW,216,0.0,0.0,84,0.00,,,0.00,weatherlink.com 1.10,2013-06-17 01:42:00,
2013-06-16 20:57:00,75.7,71.0,29.92,SW,216,0.0,0.0,85,0.00,,,0.00,weatherlink.com 1.10,2013-06-17 01:57:00,
2013-06-16 21:12:00,75.0,71.0,29.92,SW,216,0.0,0.0,87,0.00,,,0.00,weatherlink.com 1.10,2013-06-17 02:12:00,
2013-06-16 21:27:00,74.3,70.0,29.93,SW,216,0.0,0.0,87,0.00,,,0.00,weatherlink.com 1.10,2013-06-17 02:27:00,
2013-06-16 21:42:00,73.8,70.0,29.93,SW,216,0.0,0.0,88,0.00,,,0.00,weatherlink.com 1.10,2013-06-17 02:42:00,
2013-06-16 21:57:00,73.3,70.0,29.93,SW,216,0.0,0.0,90,0.00,,,0.00,weatherlink.com 1.10,2013-06-17 02:57:00,
2013-06-16 22:14:00,72.7,70.0,29.93,SW,216,0.0,0.0,90,0.00,,,0.00,weatherlink.com 1.10,2013-06-17 03:14:00,
2013-06-16 22:29:00,72.3,70.0,29.93,SW,216,0.0,0.0,91,0.00,,,0.00,weatherlink.com 1.10,2013-06-17 03:29:00,
2013-06-16 22:44:00,72.0,70.0,29.93,SW,216,0.0,0.0,92,0.00,,,0.00,weatherlink.com 1.10,2013-06-17 03:44:00,
2013-06-16 22:59:00,71.6,69.0,29.93,SW,216,0.0,0.0,92,0.00,,,0.00,weatherlink.com 1.10,2013-06-17 03:59:00,
2013-06-16 23:14:00,71.4,69.0,29.93,SW,216,0.0,0.0,93,0.00,,,0.00,weatherlink.com 1.10,2013-06-17 04:14:00,
2013-06-16 23:29:00,71.2,69.0,29.93,SW,216,0.0,0.0,93,0.00,,,0.00,weatherlink.com 1.10,2013-06-17 04:29:00,
2013-06-16 23:44:00,70.9,69.0,29.93,SW,216,0.0,0.0,93,0.00,,,0.00,weatherlink.com 1.10,2013-06-17 04:44:00,
2013-06-16 23:59:00,70.5,68.0,29.92,SW,216,0.0,0.0,93,0.00,,,0.00,weatherlink.com 1.10,2013-06-17 04:59:00,